Station PVDR1 - 8453662 - Providence Visibility, RI Image indicating link to RSS feed of recent meteorological observations for station PVDR1


Conditions at PVDR1 as of
(6:18 pm EDT)
2218 GMT on 04/17/2024:
     

Click on the graph icon in the table below to see a time series plot of the last five days of that observation.

5-day plot - Wind Direction Wind Direction (WDIR): S ( 170 deg true )
5-day plot - Wind Speed Wind Speed (WSPD): 13.0 kts
5-day plot - Wind Gust Wind Gust (GST): 17.1 kts
5-day plot - Atmospheric Pressure Atmospheric Pressure (PRES):30.15 in
5-day plot - Air Temperature Air Temperature (ATMP): 48.7 °F
5-day plot - Dew Point Dew Point (DEWP): 38.1 °F
5-day plot - Visibility Visibility (VIS): 5.9 nmi
5-day plot - Wind Chill Wind Chill (CHILL): 43.0 °F
5-day plot - Wind Speed at 10 Meters Wind Speed at 10 meters (WSPD10M): 13.6 kts
5-day plot - Wind Speed at 20 Meters Wind Speed at 20 meters (WSPD20M): 15.5 kts
5-day plot -  Wind Speed, Wind Gust and Atmospheric Pressure Combined plot of Wind Speed, Gust, and Air Pressure
NOS Water Level Observation Network Water Level
Previous observations
TIME
(EDT)
5-day plot - Wind Direction
WDIR
 
5-day plot - Wind Speed
WSPD
kts
5-day plot - Wind Gust
GST
kts
5-day plot - Wave Height
WVHT
ft
5-day plot - Dominant Wave Period
DPD
sec
5-day plot - Average Wave Period
APD
sec
5-day plot - Mean Wave Direction
MWD
 
5-day plot - Atmospheric Pressure
PRES
in
5-day plot - Pressure Tendency
PTDY
in
5-day plot - Air Temperature
ATMP
°F
5-day plot - Water Temperature
WTMP
°F
5-day plot - Dew Point
DEWP
°F
5-day plot - Salinity
SAL
psu
5-day plot - Visibility
VIS
nmi
5-day plot - Tide (above MLLW)
TIDE
ft
2024-04-17 06:12 pmSSE 13.0 15.9----30.15- 48.7- 38.5- 5.9-
2024-04-17 06:06 pm S 13.0 15.9----30.15- 48.7- 38.8- 5.9-
2024-04-17 06:00 pm S 13.0 15.9----30.15+0.00---- 5.9-
2024-04-17 05:54 pmSSE 14.0 15.9----30.15----- 5.9-
2024-04-17 05:48 pm S 13.0 18.1----30.15- 48.9- 39.9- 5.9-
2024-04-17 05:42 pm S 13.0 17.1----30.15- 49.1- 40.1- 5.9-
2024-04-17 05:36 pm S 12.0 14.0----30.15- 49.1- 40.3- 5.9-
2024-04-17 05:30 pm S 14.0 15.9----30.14- 48.7- 39.6- 5.9-
2024-04-17 05:24 pm S 12.0 17.1----30.14- 48.9- 39.9- 5.9-
2024-04-17 05:18 pm S 14.0 17.1----30.14- 49.1- 40.6- 5.9-
2024-04-17 05:12 pm S 12.0 15.0----30.14- 49.1- 40.1- 5.9-
2024-04-17 05:06 pm S 12.0 15.0----30.14- 49.1- 40.5- 5.9-
2024-04-17 05:00 pm S 13.0 14.0----30.14-0.03 49.3- 41.0- 5.9-
2024-04-17 04:54 pm S 13.0 15.0----30.14- 49.3- 41.2- 5.9-
2024-04-17 04:48 pm S 12.0 14.0----30.14- 49.6- 41.9- 5.9-
2024-04-17 04:42 pm S 11.1 13.0----30.14- 49.8- 41.5- 5.9-
2024-04-17 04:36 pm S 11.1 13.0----30.14- 49.8- 41.0- 5.9-
2024-04-17 04:30 pm S 11.1 15.0----30.14- 50.0- 41.0- 5.9-
2024-04-17 04:24 pm S 13.0 15.9----30.14- 50.0- 39.9- 5.9-
2024-04-17 04:18 pm S 13.0 15.0----30.14- 50.0- 39.7- 5.9-
2024-04-17 04:12 pm S 14.0 15.9----30.14- 49.8- 38.3- 5.9-
2024-04-17 04:06 pm S 14.0 15.0----30.14- 50.0- 38.7- 5.9-
2024-04-17 04:00 pm S 13.0 15.9----30.14-0.04 50.0- 38.7- 5.9-
2024-04-17 03:54 pm S 13.0 15.9----30.15- 50.4- 38.7- 5.9-
2024-04-17 03:48 pm S 12.0 15.0----30.15- 50.5- 40.1- 5.9-
2024-04-17 03:42 pm S 13.0 17.1----30.15- 50.7- 39.9- 5.9-
2024-04-17 03:36 pm S 15.0 18.1----30.15- 50.7- 38.8- 5.9-
2024-04-17 03:30 pm S 15.9 17.1----30.15- 50.7- 37.4- 5.9-
2024-04-17 03:24 pm S 14.0 17.1----30.15- 50.9- 38.5- 5.9-
2024-04-17 03:18 pm S 15.0 17.1----30.15- 50.7- 38.3- 5.9-
2024-04-17 03:12 pm S 14.0 18.1----30.15- 51.3- 39.7- 5.9-
2024-04-17 03:06 pmSSE 15.0 17.1----30.15- 51.3- 39.0- 5.9-
2024-04-17 03:00 pmSSE 13.0 17.1----30.16-0.05 51.4- 39.9- 5.9-
2024-04-17 02:54 pmSSE 15.0 17.1----30.16- 51.4- 39.4- 5.9-
2024-04-17 02:48 pmSSE 15.0 17.1----30.16- 51.6- 40.3- 5.9-
2024-04-17 02:42 pmSSE 15.0 18.1----30.16- 52.0- 41.0- 5.9-
2024-04-17 02:36 pmSSE 14.0 18.1----30.16- 52.0- 41.4- 5.9-
2024-04-17 02:30 pmSSE 17.1 18.1----30.16- 51.8- 40.8- 5.9-
2024-04-17 02:24 pmSSE 14.0 17.1----30.17- 52.0- 41.9- 5.9-
2024-04-17 02:18 pmSSE 15.0 17.1----30.17- 51.8- 42.1- 5.9-
2024-04-17 02:12 pmSSE 15.0 17.1----30.17- 51.6- 41.9- 5.9-
2024-04-17 02:06 pmSSE 15.0 17.1----30.17- 51.8- 41.4- 5.9-
2024-04-17 02:00 pmSSE 14.0 17.1----30.17-0.04 52.0- 42.1- 5.9-
2024-04-17 01:54 pmSSE 15.0 15.9----30.17- 52.2- 42.1- 5.9-
2024-04-17 01:48 pmSSE 14.0 14.0----30.17- 52.3- 42.3- 5.9-
2024-04-17 01:42 pmSSE 14.0 15.0----30.17- 52.5- 42.1- 5.9-
2024-04-17 01:36 pmSSE 14.0 15.0----30.18- 52.7- 42.8- 5.9-
2024-04-17 01:30 pmSSE 13.0 15.0----30.18- 53.1- 43.0- 5.9-
2024-04-17 01:24 pmSSE 11.1 13.0----30.18- 53.4- 40.6- 5.9-
2024-04-17 01:18 pmSSE 11.1 13.0----30.18- 53.6- 39.9- 5.9-
2024-04-17 01:12 pmSSE 12.0 13.0----30.18- 53.6- 40.6- 5.9-
2024-04-17 01:06 pmSSE 11.1 13.0----30.19- 54.0- 40.3- 5.9-
2024-04-17 01:00 pm S 11.1 15.0----30.19-0.05 54.1- 39.9- 5.9-
2024-04-17 12:54 pm S 11.1 13.0----30.19- 54.1- 41.0- 5.9-
2024-04-17 12:48 pmSSE 8.0 12.0----30.19- 54.7- 41.4- 5.9-
2024-04-17 12:42 pmSSE 8.9 11.1----30.19- 54.3- 40.6- 5.9-
2024-04-17 12:36 pmSSE 8.0 8.9----30.19- 54.0- 40.1- 5.9-
2024-04-17 12:30 pm S 7.0 8.9----30.19- 54.0- 40.3- 5.9-
2024-04-17 12:24 pm S 8.0 8.9----30.19- 53.8- 38.7- 5.9-
2024-04-17 12:18 pm S 7.0 8.0----30.20- 53.6- 39.0- 5.9-
2024-04-17 12:12 pm S 7.0 8.0----30.20- 53.2- 38.3- 5.9-
2024-04-17 12:06 pm S 7.0 8.0----30.20- 53.6- 39.2- 5.9-
2024-04-17 12:00 pm S 7.0 7.0----30.20-0.05 53.4- 38.7- 5.9-
2024-04-17 11:54 am S 7.0 7.0----30.20- 53.2- 38.5- 5.9-
2024-04-17 11:48 am S 6.0 6.0----30.21- 53.2- 37.4- 5.9-
2024-04-17 11:42 am S 6.0 6.0----30.21- 53.2- 38.5- 5.9-
2024-04-17 11:36 am S 7.0 7.0----30.21- 52.7- 37.4- 5.9-
2024-04-17 11:30 am S 5.1 7.0----30.21- 53.1- 37.9- 5.9-
2024-04-17 11:24 am S 6.0 7.0----30.21- 52.7- 37.6- 5.9-
2024-04-17 11:18 am S 5.1 6.0----30.21- 52.3- 37.8- 5.9-
2024-04-17 11:12 am S 5.1 5.1----30.22- 52.3- 37.8- 5.9-
2024-04-17 11:06 am S 5.1 6.0----30.22- 52.3- 36.9- 5.9-
2024-04-17 11:00 am S 5.1 6.0----30.22-0.03 53.1- 37.2- 5.9-
2024-04-17 10:54 am S 5.1 5.1----30.22- 54.0- 37.8- 5.9-
2024-04-17 10:48 am S 5.1 5.1----30.22- 53.4- 37.4- 5.9-
2024-04-17 10:42 am S 4.1 5.1----30.22- 53.4- 36.9- 5.9-
2024-04-17 10:36 am S 2.9 5.1----30.22- 53.6- 36.9- 5.9-
2024-04-17 10:30 am S 5.1 5.1----30.23- 52.5- 36.1- 5.9-
2024-04-17 10:24 amSSW 4.1 5.1----30.23- 51.3- 35.4- 5.9-
2024-04-17 10:18 amSSW 4.1 5.1----30.23- 51.8- 36.7- 5.9-
2024-04-17 10:12 amSSW 2.9 4.1----30.23- 51.4- 34.5- 5.9-
2024-04-17 10:06 amSSW 2.9 2.9----30.23- 51.1- 34.3- 5.9-
2024-04-17 10:00 amSSW 2.9 2.9----30.24-0.01 50.9- 34.2- 5.9-
2024-04-17 09:54 amSSW 2.9 4.1----30.24- 50.9- 34.5- 5.9-
2024-04-17 09:48 amSSW 4.1 5.1----30.24- 50.2- 34.0- 5.9-
2024-04-17 09:42 amSSW 2.9 4.1----30.24- 50.4- 34.5- 5.9-
2024-04-17 09:36 am SW 2.9 4.1----30.24- 50.2- 33.6- 5.9-
2024-04-17 09:30 amSSE 1.9 2.9----30.24- 51.3- 33.8- 5.9-
2024-04-17 09:24 amSSE 1.9 4.1----30.24- 50.9- 33.4- 5.9-
2024-04-17 09:18 am S 1.9 4.1----30.24- 51.6- 33.4- 5.9-
2024-04-17 09:12 amENE 2.9 5.1----30.25- 52.2- 34.5- 5.9-
2024-04-17 09:06 am NE 2.9 5.1----30.25- 52.2- 33.8- 5.9-
2024-04-17 09:00 amENE 1.9 5.1----30.25+0.01 51.6- 34.0- 5.9-
2024-04-17 08:54 amENE 2.9 5.1----30.25- 51.3- 34.0- 5.9-
2024-04-17 08:48 amENE 5.1 7.0----30.25- 50.5- 33.6- 5.9-
2024-04-17 08:42 am E 2.9 6.0----30.25- 50.4- 34.3- 5.9-
2024-04-17 08:36 am E 4.1 6.0----30.25- 50.2- 34.0- 5.9-
2024-04-17 08:30 am E 5.1 8.0------ 49.3- 33.6- 5.9-
2024-04-17 08:24 am NE 7.0 8.9------ 48.9- 32.9- 5.9-
2024-04-17 08:18 amENE 4.1 8.0----30.25- 48.9- 33.6- 5.9-
2024-04-17 08:12 am E 6.0 8.9----30.25- 49.8- 34.7- 5.9-
2024-04-17 08:06 am NE 5.1 7.0----30.25- 49.5- 33.8- 5.9-
2024-04-17 08:00 amENE 5.1 6.0----30.25+0.02 48.9- 34.2- 5.9-
2024-04-17 07:54 am NE 5.1 8.9----30.25- 48.6- 34.2- 5.9-
2024-04-17 07:48 amENE 6.0 8.9----30.25- 48.0- 33.8- 5.9-
2024-04-17 07:42 am NE 7.0 8.9----30.25- 47.8- 33.3- 5.9-
2024-04-17 07:36 am NE 8.0 9.9----30.25- 47.5- 33.4- 5.9-
2024-04-17 07:30 amNNE 6.0 9.9----30.25- 47.3- 33.4- 5.9-
2024-04-17 07:24 am NE 6.0 8.9----30.25- 47.3- 33.6- 5.9-
2024-04-17 07:18 am NE 5.1 8.9----30.25- 47.1- 33.8- 5.9-
2024-04-17 07:12 am NE 7.0 8.9----30.25- 46.9- 33.6- 5.9-
2024-04-17 07:06 am NE 6.0 8.9----30.25- 46.8- 34.0- 5.9-
2024-04-17 07:00 am NE 5.1 8.9----30.25+0.05 46.8- 34.3- 5.9-
2024-04-17 06:54 amENE 5.1 8.0----30.24- 46.6- 34.5- 5.9-
2024-04-17 06:48 am NE 5.1 7.0----30.25- 46.6- 34.3- 5.9-
2024-04-17 06:42 am NE 6.0 9.9----30.25- 46.4- 34.3- 5.9-
2024-04-17 06:36 am NE 6.0 8.9----30.24- 46.4- 34.7- 5.9-
2024-04-17 06:30 am NE 6.0 8.0----30.24- 46.2- 34.7- 5.9-
2024-04-17 06:24 am NE 5.1 7.0----30.24- 46.0- 35.1- 5.9-
2024-04-17 06:18 am NE 5.1 8.9----30.24- 45.9- 35.1- 5.9-
2024-04-17 06:12 am NE 5.1 8.9----30.25- 45.9- 35.2- 5.9-
2024-04-17 06:06 am NE 6.0 11.1----30.24- 46.2- 35.2- 5.9-
2024-04-17 06:00 am NE 4.1 6.0----30.24+0.06 46.4- 34.7- 5.9-
2024-04-17 05:54 am NE 4.1 6.0----30.24- 46.6- 34.2- 5.9-
2024-04-17 05:48 amNNE 1.9 4.1----30.24- 46.6- 33.8- 5.9-
2024-04-17 05:42 am NE 2.9 4.1----30.24- 46.8- 33.6- 5.9-
2024-04-17 05:36 am NE 2.9 5.1----30.23- 46.9- 34.0- 5.9-
2024-04-17 05:30 am NE 4.1 7.0----30.23- 46.8- 34.0- 5.9-
2024-04-17 05:24 am NE 4.1 6.0----30.23- 47.1- 33.8- 5.9-
2024-04-17 05:18 amNNE 4.1 5.1----30.23- 47.5- 33.6- 5.9-
2024-04-17 05:12 amNNE 2.9 5.1----30.23- 47.7- 33.4- 5.9-
2024-04-17 05:06 amNNE 1.9 5.1----30.23- 47.7- 33.4- 5.9-
2024-04-17 05:00 amNNE 1.9 4.1----30.22+0.04 47.8- 33.3- 5.9-
2024-04-17 04:54 am N 1.0 4.1----30.22- 48.0- 33.6- 5.9-
2024-04-17 04:48 amNNE 2.9 5.1----30.22- 48.2- 33.6- 5.9-
2024-04-17 04:42 amNNE 2.9 5.1----30.21- 48.4- 33.6- 5.9-
2024-04-17 04:36 am NE 4.1 5.1----30.21- 48.4- 33.4- 5.9-
2024-04-17 04:30 am NE 2.9 6.0----30.20- 48.6- 33.4- 5.9-
2024-04-17 04:24 amNNE 5.1 7.0----30.20- 48.7- 33.1- 5.9-
2024-04-17 04:18 amNNE 4.1 7.0----30.20- 48.9- 33.6- 5.9-
2024-04-17 04:12 amNNE 4.1 7.0----30.20- 49.1- 33.8- 5.9-
2024-04-17 04:06 am NE 5.1 6.0----30.20- 49.3- 33.6- 5.9-
2024-04-17 04:00 am NE 4.1 8.0----30.20+0.03 49.5- 33.8- 5.9-
2024-04-17 03:54 am NE 6.0 8.9----30.19- 49.6- 33.4- 5.9-
2024-04-17 03:48 am NE 5.1 8.9----30.19- 49.6- 33.4- 5.9-
2024-04-17 03:42 am NE 6.0 11.1----30.19- 50.0- 33.8- 5.9-
2024-04-17 03:36 amENE 7.0 9.9----30.19- 50.2- 33.8- 5.9-
2024-04-17 03:30 amENE 5.1 11.1----30.19- 50.2- 34.5- 5.9-
2024-04-17 03:24 am NE 7.0 13.0----30.19- 50.7- 34.2- 5.9-
2024-04-17 03:18 amENE 8.0 11.1----30.19- 50.9- 34.3- 5.9-
2024-04-17 03:12 am NE 6.0 12.0----30.19- 51.3- 35.2- 5.9-
2024-04-17 03:06 am NE 7.0 11.1----30.18- 51.6- 35.1- 5.9-
2024-04-17 03:00 am NE 5.1 11.1----30.18+0.03 52.2- 34.9- 5.9-
2024-04-17 02:54 am NE 6.0 8.9----30.18- 52.5- 34.5- 5.9-
2024-04-17 02:48 amNNE 5.1 6.0----30.18- 52.9- 34.2- 5.9-
2024-04-17 02:42 amNNE 2.9 6.0----30.18- 53.1- 34.2- 5.9-
2024-04-17 02:36 amNNE 4.1 8.0----30.18- 53.4- 34.2- 5.9-
2024-04-17 02:30 amNNE 5.1 8.0----30.18- 53.6- 34.0- 5.9-
2024-04-17 02:24 am N 5.1 9.9----30.18- 53.8- 34.0- 5.9-
2024-04-17 02:18 am N 6.0 8.9----30.18- 54.1- 33.8- 5.9-
2024-04-17 02:12 am N 2.9 7.0----30.18- 54.1- 34.3- 5.9-
2024-04-17 02:06 am N 4.1 8.9----30.18- 54.5- 34.2- 5.9-
2024-04-17 02:00 am N 6.0 11.1----30.18+0.04 54.7- 34.0- 5.9-
2024-04-17 01:54 am N 5.1 8.0----30.18- 54.9- 34.0- 5.9-
2024-04-17 01:48 am N 6.0 8.9----30.18- 55.0- 34.2- 5.9-
2024-04-17 01:42 am N 6.0 11.1----30.18- 55.2- 33.8- 5.9-
2024-04-17 01:36 am N 7.0 11.1----30.18- 55.4- 33.8- 5.9-
2024-04-17 01:30 am N 8.0 11.1----30.18- 55.6- 33.8- 5.9-
2024-04-17 01:24 amNNE 7.0 11.1----30.18- 55.8- 34.0- 5.9-
2024-04-17 01:18 am N 8.0 12.0----30.17- 55.9- 33.8- 5.9-
2024-04-17 01:12 am N 6.0 12.0----30.17- 56.1- 34.2- 5.9-
2024-04-17 01:06 am N 9.9 14.0----30.17- 56.3- 33.6- 5.9-
2024-04-17 01:00 am N 7.0 14.0----30.17+0.04 56.5- 34.0- 5.9-
2024-04-17 12:54 am N 8.9 14.0----30.17- 57.0- 33.3- 5.9-
2024-04-17 12:48 am N 8.0 14.0----30.17- 57.2- 32.9- 5.9-
2024-04-17 12:42 am N 8.0 11.1----30.17- 57.6- 32.9- 5.9-
2024-04-17 12:36 am N 8.9 13.0----30.16- 58.3- 32.7- 5.9-
2024-04-17 12:30 amNNW 7.0 13.0----30.16- 58.3- 32.5- 5.9-
2024-04-17 12:24 amNNW 7.0 9.9----30.16- 57.2- 33.1- 5.9-
2024-04-17 12:18 am NW 5.1 8.0----30.16- 56.8- 33.3- 5.9-
2024-04-17 12:12 am NW 5.1 9.9----30.16- 57.2- 33.1- 5.9-
2024-04-17 12:06 am NW 6.0 11.1----30.15- 57.7- 32.5- 5.9-
2024-04-17 12:00 am NW 7.0 9.9----30.16+0.04 58.1- 32.5- 5.9-
2024-04-16 11:54 pm NW 7.0 11.1----30.16- 58.1- 32.5- 5.9-
2024-04-16 11:48 pm NW 7.0 9.9----30.15- 58.1- 32.9- 5.9-
2024-04-16 11:42 pm NW 6.0 8.9----30.15- 58.5- 32.5- 5.9-
2024-04-16 11:36 pm NW 6.0 9.9----30.15- 59.0- 32.4- 5.9-
2024-04-16 11:30 pm NW 7.0 9.9----30.15- 59.4- 32.0- 5.9-
2024-04-16 11:24 pm NW 7.0 8.9----30.14- 59.4- 32.0- 5.9-
2024-04-16 11:18 pm NW 6.0 8.9----30.14- 59.2- 32.0- 5.9-
2024-04-16 11:12 pm NW 7.0 8.9----30.14- 59.4- 31.6- 5.9-
2024-04-16 11:06 pm NW 6.0 9.9----30.14- 59.4- 31.8- 5.9-
2024-04-16 11:00 pm NW 6.0 11.1----30.14+0.04 59.7- 31.6- 5.9-
2024-04-16 10:54 pm NW 6.0 8.9----30.14- 59.5- 31.6- 5.9-
2024-04-16 10:48 pm NW 6.0 8.0----30.13- 59.5- 31.6- 5.9-
2024-04-16 10:42 pm NW 7.0 8.9----30.13- 59.5- 31.5- 5.9-
2024-04-16 10:36 pm NW 5.1 8.0----30.13- 59.4- 31.8- 5.9-
2024-04-16 10:30 pmWNW 6.0 8.0----30.13- 59.4- 32.0- 5.9-
2024-04-16 10:24 pmWNW 5.1 7.0----30.13- 59.2- 31.8- 5.9-
2024-04-16 10:18 pm NW 5.1 6.0----30.13- 59.4- 31.8- 5.9-
2024-04-16 10:12 pmWNW 5.1 7.0----30.13- 59.5- 32.0- 5.9-
2024-04-16 10:06 pmWNW 4.1 6.0----30.13- 59.7- 31.8- 5.9-
2024-04-16 10:00 pm NW 5.1 7.0----30.13+0.06 60.1- 32.0- 5.9-
2024-04-16 09:54 pm NW 5.1 7.0----30.13- 60.3- 31.6- 5.9-
2024-04-16 09:48 pmWNW 4.1 6.0----30.13- 60.4- 31.6- 5.9-
2024-04-16 09:42 pmWNW 4.1 7.0----30.13- 60.4- 31.6- 5.9-
2024-04-16 09:36 pmWNW 4.1 6.0----30.13- 60.8- 31.6- 5.9-
2024-04-16 09:30 pmWNW 4.1 6.0----30.12- 60.8- 31.6- 5.9-
2024-04-16 09:24 pmWNW 4.1 5.1----30.12- 61.0- 31.8- 5.9-
2024-04-16 09:18 pmWNW 5.1 6.0----30.12- 61.0- 31.8- 5.9-
2024-04-16 09:12 pm NW 5.1 7.0----30.12- 61.0- 32.0- 5.9-
2024-04-16 09:06 pm NW 5.1 7.0----30.12- 61.3- 31.5- 5.9-
2024-04-16 09:00 pm NW 6.0 8.0----30.12+0.06 61.7- 31.6- 5.9-
2024-04-16 08:54 pmWNW 5.1 8.0----30.11- 61.9- 31.6- 5.9-
2024-04-16 08:48 pm NW 5.1 8.0----30.11- 62.2- 31.5- 5.9-
2024-04-16 08:42 pm NW 5.1 8.0----30.11- 62.2- 31.5- 5.9-
2024-04-16 08:36 pm NW 6.0 8.0----30.11- 62.2- 31.5- 5.9-
2024-04-16 08:30 pm NW 6.0 8.0----30.11- 62.8- 31.5- 5.9-
2024-04-16 08:24 pm NW 5.1 7.0----30.10- 62.8- 31.6- 5.9-
2024-04-16 08:18 pm NW 5.1 8.9----30.10- 63.0- 31.5- 5.9-
2024-04-16 08:12 pm NW 6.0 9.9----30.10- 63.3- 31.3- 5.9-
2024-04-16 08:06 pm NW 6.0 9.9----30.10- 63.3- 31.1- 5.9-
2024-04-16 08:00 pm NW 7.0 9.9----30.10+0.04 63.9- 30.9- 5.9-
2024-04-16 07:54 pm NW 7.0 11.1----30.09- 63.9- 30.9- 5.9-
2024-04-16 07:48 pm NW 6.0 11.1----30.09- 63.9- 31.1- 5.9-
2024-04-16 07:42 pm NW 8.0 12.0----30.09- 64.2- 30.7- 5.9-
2024-04-16 07:36 pm NW 7.0 8.9----30.09- 64.2- 31.1- 5.9-
2024-04-16 07:30 pm NW 8.0 11.1----30.08- 64.6- 30.6- 5.9-
2024-04-16 07:24 pm NW 7.0 9.9----30.08- 64.8- 30.6- 5.9-
2024-04-16 07:00 pmNNW 7.0 11.1----30.07+0.02 66.0- 30.9- 5.9-
2024-04-16 06:54 pm NW 8.9 13.0----30.07- 66.2- 29.7- 5.9-